Location: Larkspur
(54.4391°N, 113.7691°W)
Time: 13:19:58
(UTC+00:00)

Oscar 19 - Pass Details

Date: 30 November 2023
Orbit: 771 x 789 km, 98.9° (Epoch: 01 March)

Event Time Altitude Azimuth Distance (km) Brightness Sun altitude
Rises 11:22:11 0° 23° (NNE) 3,269 14.3 -35.0°
Reaches altitude 10° 11:24:55 10° 37° (NE) 2,339 13.6 -34.6°
Maximum altitude 11:29:07 25° 92° (E) 1,548 12.7 -34.0°
Drops below altitude 10° 11:33:18 10° 146° (SSE) 2,335 13.3 -33.4°
Sets 11:36:01 0° 160° (SSE) 3,261 14.0 -33.0°
